Time,TemperatureF,DewpointF,PressureIn,WindDirection,WindDirectionDegrees,WindSpeedMPH,WindSpeedGustMPH,Humidity,HourlyPrecipIn,Conditions,Clouds,dailyrainin,SoftwareType,DateUTC
2013-11-04 00:02:00,43.2,37.1,30.16,SE,128,0.0,5.0,79,0.00,,---,0.00,VWS V14.01,2013-11-04 06:02:00,
2013-11-04 00:07:00,43.3,37.2,30.16,SE,136,0.0,6.0,79,0.00,,---,0.00,VWS V14.01,2013-11-04 06:07:00,
2013-11-04 00:12:00,43.2,37.1,30.16,SSE,153,0.0,6.0,79,0.00,,---,0.00,VWS V14.01,2013-11-04 06:12:00,
2013-11-04 00:17:00,43.2,37.1,30.15,South,190,1.0,11.0,79,0.00,,---,0.00,VWS V14.01,2013-11-04 06:17:00,
2013-11-04 00:22:00,43.3,37.2,30.15,SE,138,4.0,10.0,79,0.00,,---,0.00,VWS V14.01,2013-11-04 06:22:00,
2013-11-04 00:27:00,43.3,37.2,30.15,ESE,109,0.0,4.0,79,0.00,,---,0.00,VWS V14.01,2013-11-04 06:27:00,
2013-11-04 00:31:00,43.3,37.2,30.14,SSE,149,5.0,5.0,79,0.00,,---,0.00,VWS V14.01,2013-11-04 06:31:00,
2013-11-04 00:36:00,43.2,37.1,30.14,ESE,111,2.0,10.0,79,0.00,,---,0.00,VWS V14.01,2013-11-04 06:36:00,
2013-11-04 00:41:00,43.2,37.1,30.14,South,180,4.0,10.0,79,0.00,,---,0.00,VWS V14.01,2013-11-04 06:41:00,
2013-11-04 00:46:00,43.2,37.1,30.14,ESE,109,0.0,2.0,79,0.00,,---,0.00,VWS V14.01,2013-11-04 06:46:00,
2013-11-04 00:51:00,43.1,37.0,30.14,ESE,123,6.0,11.0,79,0.00,,---,0.00,VWS V14.01,2013-11-04 06:51:00,
2013-11-04 00:56:00,43.1,37.0,30.14,SE,142,6.0,6.0,79,0.00,,---,0.00,VWS V14.01,2013-11-04 06:56:00,
2013-11-04 01:01:00,42.8,36.8,30.15,SSE,164,0.0,5.0,79,0.00,,---,0.00,VWS V14.01,2013-11-04 07:01:00,
2013-11-04 01:06:00,42.8,36.8,30.15,ESE,117,0.0,0.0,79,0.00,,---,0.00,VWS V14.01,2013-11-04 07:06:00,
2013-11-04 01:11:00,42.6,36.5,30.15,ESE,114,2.0,6.0,79,0.00,,---,0.00,VWS V14.01,2013-11-04 07:11:00,
2013-11-04 01:16:00,42.6,36.5,30.15,ESE,116,0.0,0.0,79,0.00,,---,0.00,VWS V14.01,2013-11-04 07:16:00,
2013-11-04 01:21:00,42.5,36.5,30.15,SE,144,0.0,8.0,79,0.00,,---,0.00,VWS V14.01,2013-11-04 07:21:00,
2013-11-04 01:26:00,42.5,36.5,30.15,East,90,0.0,5.0,79,0.00,,---,0.00,VWS V14.01,2013-11-04 07:26:00,
2013-11-04 01:31:00,42.3,36.3,30.14,SSE,153,0.0,10.0,79,0.00,,---,0.00,VWS V14.01,2013-11-04 07:31:00,
2013-11-04 01:36:00,42.2,36.2,30.14,SSE,153,0.0,8.0,79,0.00,,---,0.00,VWS V14.01,2013-11-04 07:36:00,
2013-11-04 01:41:00,42.2,36.5,30.14,SE,135,0.0,2.0,80,0.00,,---,0.00,VWS V14.01,2013-11-04 07:41:00,
2013-11-04 01:46:00,41.9,36.2,30.13,ESE,117,0.0,0.0,80,0.00,,---,0.00,VWS V14.01,2013-11-04 07:46:00,
2013-11-04 01:51:00,41.9,36.2,30.13,SE,138,2.0,7.0,80,0.00,,---,0.00,VWS V14.01,2013-11-04 07:51:00,
2013-11-04 01:56:00,42.1,36.4,30.13,SSE,148,0.0,7.0,80,0.00,,---,0.00,VWS V14.01,2013-11-04 07:56:00,
2013-11-04 02:01:00,42.1,36.4,30.15,SE,142,0.0,1.0,80,0.00,,---,0.00,VWS V14.01,2013-11-04 08:01:00,
2013-11-04 02:06:00,41.9,36.2,30.15,East,85,0.0,0.0,80,0.00,,---,0.00,VWS V14.01,2013-11-04 08:06:00,
2013-11-04 02:11:00,41.9,35.9,30.15,SE,127,0.0,0.0,79,0.00,,---,0.00,VWS V14.01,2013-11-04 08:11:00,
2013-11-04 02:16:00,42.1,36.1,30.15,ESE,117,0.0,0.0,79,0.00,,---,0.00,VWS V14.01,2013-11-04 08:16:00,
2013-11-04 02:21:00,42.2,36.2,30.15,SSE,153,0.0,4.0,79,0.00,,---,0.00,VWS V14.01,2013-11-04 08:21:00,
2013-11-04 02:26:00,42.3,35.9,30.15,SE,140,0.0,2.0,78,0.00,,---,0.00,VWS V14.01,2013-11-04 08:26:00,
2013-11-04 02:31:00,42.3,35.9,30.14,SSE,162,9.0,9.0,78,0.00,,---,0.00,VWS V14.01,2013-11-04 08:31:00,
2013-11-04 02:36:00,42.5,36.1,30.14,SSE,161,2.0,7.0,78,0.00,,---,0.00,VWS V14.01,2013-11-04 08:36:00,
2013-11-04 02:41:00,42.5,36.1,30.14,SE,139,0.0,0.0,78,0.00,,---,0.00,VWS V14.01,2013-11-04 08:41:00,
2013-11-04 02:46:00,42.5,36.1,30.14,SSE,155,0.0,9.0,78,0.00,,---,0.00,VWS V14.01,2013-11-04 08:46:00,
2013-11-04 02:51:00,42.5,36.1,30.14,SSE,157,5.0,9.0,78,0.00,,---,0.00,VWS V14.01,2013-11-04 08:51:00,
2013-11-04 02:56:00,42.5,36.5,30.14,SSE,162,1.0,6.0,79,0.00,,---,0.00,VWS V14.01,2013-11-04 08:56:00,
2013-11-04 03:01:00,42.5,36.1,30.13,SE,146,0.0,5.0,78,0.00,,---,0.00,VWS V14.01,2013-11-04 09:01:00,
2013-11-04 03:06:00,42.5,36.5,30.13,ESE,113,1.0,4.0,79,0.00,,---,0.00,VWS V14.01,2013-11-04 09:06:00,
2013-11-04 03:11:00,42.3,36.3,30.13,SE,142,0.0,7.0,79,0.00,,---,0.00,VWS V14.01,2013-11-04 09:11:00,
2013-11-04 03:16:00,42.5,36.1,30.14,SE,142,0.0,2.0,78,0.00,,---,0.00,VWS V14.01,2013-11-04 09:16:00,
2013-11-04 03:21:00,42.6,36.2,30.14,ESE,123,1.0,6.0,78,0.00,,---,0.00,VWS V14.01,2013-11-04 09:21:00,
2013-11-04 03:26:00,42.6,36.2,30.14,SSE,157,1.0,5.0,78,0.00,,---,0.00,VWS V14.01,2013-11-04 09:26:00,
2013-11-04 03:31:00,42.6,35.9,30.13,SE,146,2.0,4.0,77,0.00,,---,0.00,VWS V14.01,2013-11-04 09:31:00,
2013-11-04 03:36:00,42.6,35.9,30.13,SE,138,0.0,0.0,77,0.00,,---,0.00,VWS V14.01,2013-11-04 09:36:00,
2013-11-04 03:41:00,42.8,35.8,30.13,SSE,167,8.0,8.0,76,0.00,,---,0.00,VWS V14.01,2013-11-04 09:41:00,
2013-11-04 03:46:00,42.9,35.9,30.12,East,98,2.0,10.0,76,0.00,,---,0.00,VWS V14.01,2013-11-04 09:46:00,
2013-11-04 03:51:00,42.9,35.5,30.12,SSE,154,4.0,7.0,75,0.00,,---,0.00,VWS V14.01,2013-11-04 09:51:00,
2013-11-04 03:56:00,42.9,35.5,30.12,East,96,0.0,7.0,75,0.00,,---,0.00,VWS V14.01,2013-11-04 09:56:00,
2013-11-04 04:01:00,42.9,35.5,30.12,South,184,6.0,7.0,75,0.00,,---,0.00,VWS V14.01,2013-11-04 10:01:00,
2013-11-04 04:06:00,43.1,35.4,30.12,SE,139,3.0,9.0,74,0.00,,---,0.00,VWS V14.01,2013-11-04 10:06:00,
2013-11-04 04:11:00,43.1,35.4,30.12,SSE,162,0.0,6.0,74,0.00,,---,0.00,VWS V14.01,2013-11-04 10:11:00,
2013-11-04 04:16:00,43.1,35.4,30.12,SSE,164,0.0,0.0,74,0.00,,---,0.00,VWS V14.01,2013-11-04 10:16:00,
2013-11-04 04:21:00,43.1,35.4,30.12,SE,126,0.0,0.0,74,0.00,,---,0.00,VWS V14.01,2013-11-04 10:21:00,
2013-11-04 04:26:00,43.1,35.4,30.12,ESE,114,0.0,0.0,74,0.00,,---,0.00,VWS V14.01,2013-11-04 10:26:00,
2013-11-04 04:31:00,43.2,35.5,30.12,SSE,150,0.0,0.0,74,0.00,,---,0.00,VWS V14.01,2013-11-04 10:31:00,
2013-11-04 04:36:00,43.2,35.5,30.12,SSE,166,0.0,9.0,74,0.00,,---,0.00,VWS V14.01,2013-11-04 10:36:00,
2013-11-04 04:41:00,43.3,35.2,30.12,SE,130,0.0,0.0,73,0.00,,---,0.00,VWS V14.01,2013-11-04 10:41:00,
2013-11-04 04:46:00,43.3,35.2,30.12,East,88,0.0,0.0,73,0.00,,---,0.00,VWS V14.01,2013-11-04 10:46:00,
2013-11-04 04:51:00,43.3,35.2,30.12,SSE,161,8.0,8.0,73,0.00,,---,0.00,VWS V14.01,2013-11-04 10:51:00,
2013-11-04 04:56:00,43.2,35.1,30.12,SSE,150,0.0,6.0,73,0.00,,---,0.00,VWS V14.01,2013-11-04 10:56:00,
2013-11-04 05:01:00,43.2,35.1,30.11,SE,143,0.0,0.0,73,0.00,,---,0.00,VWS V14.01,2013-11-04 11:01:00,
2013-11-04 05:06:00,43.2,35.5,30.11,ESE,123,0.0,6.0,74,0.00,,---,0.00,VWS V14.01,2013-11-04 11:06:00,
2013-11-04 05:11:00,43.2,35.5,30.11,SE,132,0.0,4.0,74,0.00,,---,0.00,VWS V14.01,2013-11-04 11:11:00,
2013-11-04 05:14:00,43.2,35.1,30.11,SSE,164,2.0,9.0,73,0.00,,---,0.00,VWS V14.01,2013-11-04 11:14:00,
2013-11-04 05:19:00,43.2,35.1,30.10,SE,144,1.0,6.0,73,0.00,,---,0.00,VWS V14.01,2013-11-04 11:19:00,
2013-11-04 05:22:00,43.2,35.5,30.10,ESE,113,0.0,10.0,74,0.00,,---,0.00,VWS V14.01,2013-11-04 11:22:00,
2013-11-04 05:27:00,43.3,35.2,30.10,SE,142,0.0,9.0,73,0.00,,---,0.00,VWS V14.01,2013-11-04 11:27:00,
2013-11-04 05:32:00,43.3,35.2,30.09,SE,132,0.0,0.0,73,0.00,,---,0.00,VWS V14.01,2013-11-04 11:32:00,
2013-11-04 05:37:00,43.3,35.2,30.09,SSE,160,1.0,13.0,73,0.00,,---,0.00,VWS V14.01,2013-11-04 11:37:00,
2013-11-04 05:42:00,43.3,35.2,30.09,SE,137,0.0,5.0,73,0.00,,---,0.00,VWS V14.01,2013-11-04 11:42:00,
2013-11-04 05:47:00,43.3,34.9,30.09,SE,142,0.0,9.0,72,0.00,,---,0.00,VWS V14.01,2013-11-04 11:47:00,
2013-11-04 05:52:00,43.5,35.1,30.09,SSE,148,4.0,4.0,72,0.00,,---,0.00,VWS V14.01,2013-11-04 11:52:00,
2013-11-04 05:57:00,43.5,35.1,30.09,SE,143,4.0,7.0,72,0.00,,---,0.00,VWS V14.01,2013-11-04 11:57:00,
2013-11-04 06:02:00,43.6,35.2,30.09,South,169,0.0,11.0,72,0.00,,---,0.00,VWS V14.01,2013-11-04 12:02:00,
2013-11-04 06:07:00,43.5,35.1,30.09,SSE,155,0.0,2.0,72,0.00,,---,0.00,VWS V14.01,2013-11-04 12:07:00,
2013-11-04 06:12:00,43.6,35.2,30.09,SSE,153,0.0,0.0,72,0.00,,---,0.00,VWS V14.01,2013-11-04 12:12:00,
2013-11-04 06:17:00,43.5,35.1,30.09,NE,38,0.0,7.0,72,0.00,,---,0.00,VWS V14.01,2013-11-04 12:17:00,
2013-11-04 06:22:00,43.6,35.2,30.09,ESE,114,7.0,8.0,72,0.00,,---,0.00,VWS V14.01,2013-11-04 12:22:00,
2013-11-04 06:27:00,43.6,35.2,30.09,SE,142,0.0,8.0,72,0.00,,---,0.00,VWS V14.01,2013-11-04 12:27:00,
2013-11-04 06:32:00,43.6,35.2,30.09,SSE,165,0.0,5.0,72,0.00,,---,0.00,VWS V14.01,2013-11-04 12:32:00,
2013-11-04 06:37:00,43.8,35.0,30.09,East,82,5.0,5.0,71,0.00,,---,0.00,VWS V14.01,2013-11-04 12:37:00,
2013-11-04 06:42:00,43.8,35.0,30.09,ESE,107,0.0,7.0,71,0.00,,---,0.00,VWS V14.01,2013-11-04 12:42:00,
2013-11-04 06:47:00,43.8,35.0,30.09,South,190,8.0,8.0,71,0.00,,---,0.00,VWS V14.01,2013-11-04 12:47:00,
2013-11-04 06:51:00,43.8,35.0,30.09,South,169,9.0,9.0,71,0.00,,---,0.00,VWS V14.01,2013-11-04 12:51:00,
2013-11-04 06:56:00,43.9,35.1,30.09,SSE,161,0.0,8.0,71,0.00,,---,0.00,VWS V14.01,2013-11-04 12:56:00,
2013-11-04 07:01:00,43.9,35.1,30.09,SSE,166,7.0,10.0,71,0.00,,---,0.00,VWS V14.01,2013-11-04 13:01:00,
2013-11-04 07:06:00,44.1,35.0,30.09,South,169,1.0,6.0,70,0.00,,---,0.00,VWS V14.01,2013-11-04 13:06:00,
2013-11-04 07:11:00,44.1,35.0,30.09,SE,140,0.0,8.0,70,0.00,,---,0.00,VWS V14.01,2013-11-04 13:11:00,
2013-11-04 07:16:00,44.2,35.0,30.10,South,171,0.0,6.0,70,0.00,,---,0.00,VWS V14.01,2013-11-04 13:16:00,
2013-11-04 07:21:00,44.2,35.0,30.10,SE,141,0.0,2.0,70,0.00,,---,0.00,VWS V14.01,2013-11-04 13:21:00,
2013-11-04 07:26:00,44.2,35.0,30.10,East,89,0.0,5.0,70,0.00,,---,0.00,VWS V14.01,2013-11-04 13:26:00,
2013-11-04 07:31:00,44.3,35.2,30.09,ESE,119,2.0,8.0,70,0.00,,---,0.00,VWS V14.01,2013-11-04 13:31:00,
2013-11-04 07:36:00,44.3,35.2,30.09,SSE,163,8.0,11.0,70,0.00,,---,0.00,VWS V14.01,2013-11-04 13:36:00,
2013-11-04 07:41:00,44.3,35.2,30.09,SSE,156,6.0,6.0,70,0.00,,---,0.00,VWS V14.01,2013-11-04 13:41:00,
2013-11-04 07:46:00,44.3,35.2,30.09,SE,138,0.0,13.0,70,0.00,,---,0.00,VWS V14.01,2013-11-04 13:46:00,
2013-11-04 07:51:00,44.3,35.2,30.09,East,91,0.0,3.0,70,0.00,,---,0.00,VWS V14.01,2013-11-04 13:51:00,
2013-11-04 07:56:00,44.3,35.2,30.09,SE,136,3.0,5.0,70,0.00,,---,0.00,VWS V14.01,2013-11-04 13:56:00,
2013-11-04 08:01:00,44.5,35.3,30.09,SSE,150,0.0,8.0,70,0.00,,---,0.00,VWS V14.01,2013-11-04 14:01:00,
2013-11-04 08:06:00,44.5,35.3,30.09,SSE,150,5.0,9.0,70,0.00,,---,0.00,VWS V14.01,2013-11-04 14:06:00,
2013-11-04 08:11:00,44.6,35.4,30.09,SSE,167,0.0,3.0,70,0.00,,---,0.00,VWS V14.01,2013-11-04 14:11:00,
2013-11-04 08:16:00,44.6,35.4,30.09,SSE,152,0.0,9.0,70,0.00,,---,0.00,VWS V14.01,2013-11-04 14:16:00,
2013-11-04 08:21:00,44.9,35.7,30.09,SSE,163,0.0,8.0,70,0.00,,---,0.00,VWS V14.01,2013-11-04 14:21:00,
2013-11-04 08:26:00,45.1,35.5,30.09,SSE,155,0.0,8.0,69,0.00,,---,0.00,VWS V14.01,2013-11-04 14:26:00,
2013-11-04 08:31:00,45.2,35.7,30.09,SE,140,1.0,9.0,69,0.00,,---,0.00,VWS V14.01,2013-11-04 14:31:00,
2013-11-04 08:36:00,45.4,35.8,30.09,ESE,111,6.0,8.0,69,0.00,,---,0.00,VWS V14.01,2013-11-04 14:36:00,
2013-11-04 08:41:00,45.4,35.8,30.09,South,190,7.0,8.0,69,0.00,,---,0.00,VWS V14.01,2013-11-04 14:41:00,
2013-11-04 08:46:00,45.5,35.9,30.08,SSE,165,4.0,19.0,69,0.00,,---,0.00,VWS V14.01,2013-11-04 14:46:00,
2013-11-04 08:51:00,45.5,35.9,30.08,SSE,167,6.0,6.0,69,0.00,,---,0.00,VWS V14.01,2013-11-04 14:51:00,
2013-11-04 08:56:00,45.7,36.1,30.08,SE,144,4.0,4.0,69,0.00,,---,0.00,VWS V14.01,2013-11-04 14:56:00,
2013-11-04 09:01:00,45.7,36.1,30.07,SE,132,2.0,5.0,69,0.00,,---,0.00,VWS V14.01,2013-11-04 15:01:00,
2013-11-04 09:06:00,45.8,35.8,30.07,East,96,8.0,8.0,68,0.00,,---,0.00,VWS V14.01,2013-11-04 15:06:00,
2013-11-04 09:11:00,46.0,36.0,30.07,SSE,161,1.0,7.0,68,0.00,,---,0.00,VWS V14.01,2013-11-04 15:11:00,
2013-11-04 09:16:00,46.2,36.2,30.07,South,174,13.0,15.0,68,0.00,,---,0.00,VWS V14.01,2013-11-04 15:16:00,
2013-11-04 09:21:00,46.4,36.0,30.07,SSE,158,8.0,11.0,67,0.00,,---,0.00,VWS V14.01,2013-11-04 15:21:00,
2013-11-04 09:26:00,46.5,36.2,30.07,SE,136,0.0,13.0,67,0.00,,---,0.00,VWS V14.01,2013-11-04 15:26:00,
2013-11-04 09:31:00,46.7,36.3,30.07,SSE,152,5.0,5.0,67,0.00,,---,0.00,VWS V14.01,2013-11-04 15:31:00,
2013-11-04 09:36:00,46.7,36.3,30.07,South,174,8.0,9.0,67,0.00,,---,0.00,VWS V14.01,2013-11-04 15:36:00,
2013-11-04 09:41:00,46.8,36.4,30.07,SSE,163,4.0,9.0,67,0.00,,---,0.00,VWS V14.01,2013-11-04 15:41:00,
2013-11-04 09:46:00,47.0,36.6,30.07,SSE,162,0.0,2.0,67,0.00,,---,0.00,VWS V14.01,2013-11-04 15:46:00,
2013-11-04 09:51:00,47.3,36.5,30.07,SSE,150,8.0,14.0,66,0.00,,---,0.00,VWS V14.01,2013-11-04 15:51:00,
2013-11-04 09:56:00,47.4,36.6,30.07,SSE,159,0.0,5.0,66,0.00,,---,0.00,VWS V14.01,2013-11-04 15:56:00,
2013-11-04 10:01:00,47.7,36.9,30.07,SSE,154,2.0,2.0,66,0.00,,---,0.00,VWS V14.01,2013-11-04 16:01:00,
2013-11-04 10:06:00,48.0,36.4,30.07,SSE,158,18.0,21.0,64,0.00,,---,0.00,VWS V14.01,2013-11-04 16:06:00,
2013-11-04 10:11:00,48.2,36.6,30.07,SSE,165,0.0,0.0,64,0.00,,---,0.00,VWS V14.01,2013-11-04 16:11:00,
2013-11-04 10:16:00,48.5,37.3,30.06,South,170,0.0,2.0,65,0.00,,---,0.00,VWS V14.01,2013-11-04 16:16:00,
2013-11-04 10:21:00,48.8,37.6,30.06,SSE,159,0.0,11.0,65,0.00,,---,0.00,VWS V14.01,2013-11-04 16:21:00,
2013-11-04 10:26:00,48.9,36.9,30.06,ESE,116,0.0,5.0,63,0.00,,---,0.00,VWS V14.01,2013-11-04 16:26:00,
2013-11-04 10:31:00,49.1,36.7,30.05,SSW,201,9.0,13.0,62,0.00,,---,0.00,VWS V14.01,2013-11-04 16:31:00,
2013-11-04 10:36:00,49.2,36.8,30.05,SSE,167,2.0,2.0,62,0.00,,---,0.00,VWS V14.01,2013-11-04 16:36:00,
2013-11-04 10:41:00,49.5,37.0,30.05,ESE,104,6.0,6.0,62,0.00,,---,0.00,VWS V14.01,2013-11-04 16:41:00,
2013-11-04 10:46:00,49.6,37.1,30.05,East,97,1.0,2.0,62,0.00,,---,0.00,VWS V14.01,2013-11-04 16:46:00,
2013-11-04 10:51:00,49.6,36.7,30.05,SSE,166,5.0,8.0,61,0.00,,---,0.00,VWS V14.01,2013-11-04 16:51:00,
2013-11-04 10:56:00,49.8,36.9,30.05,SSE,153,0.0,6.0,61,0.00,,---,0.00,VWS V14.01,2013-11-04 16:56:00,
2013-11-04 11:01:00,49.8,36.9,30.04,SE,142,0.0,2.0,61,0.00,,---,0.00,VWS V14.01,2013-11-04 17:01:00,
2013-11-04 11:06:00,49.8,36.5,30.04,SSE,149,6.0,6.0,60,0.00,,---,0.00,VWS V14.01,2013-11-04 17:06:00,
2013-11-04 11:11:00,50.1,37.2,30.04,SE,126,0.0,6.0,61,0.00,,---,0.00,VWS V14.01,2013-11-04 17:11:00,
2013-11-04 11:16:00,50.2,37.3,30.04,SE,145,13.0,13.0,61,0.00,,---,0.00,VWS V14.01,2013-11-04 17:16:00,
2013-11-04 11:21:00,50.2,37.3,30.04,South,169,6.0,6.0,61,0.00,,---,0.00,VWS V14.01,2013-11-04 17:21:00,
2013-11-04 11:26:00,50.4,37.5,30.04,SSE,166,7.0,9.0,61,0.00,,---,0.00,VWS V14.01,2013-11-04 17:26:00,
2013-11-04 11:31:00,50.5,36.7,30.04,South,173,4.0,8.0,59,0.00,,---,0.00,VWS V14.01,2013-11-04 17:31:00,
2013-11-04 11:36:00,51.0,37.2,30.04,South,186,5.0,9.0,59,0.00,,---,0.00,VWS V14.01,2013-11-04 17:36:00,
2013-11-04 11:41:00,51.4,37.6,30.04,South,186,0.0,16.0,59,0.00,,---,0.00,VWS V14.01,2013-11-04 17:41:00,
2013-11-04 11:46:00,51.6,37.3,30.03,South,178,0.0,11.0,58,0.00,,---,0.00,VWS V14.01,2013-11-04 17:46:00,
2013-11-04 11:51:00,51.7,37.0,30.03,SSW,204,16.0,16.0,57,0.00,,---,0.00,VWS V14.01,2013-11-04 17:51:00,
2013-11-04 11:56:00,51.6,36.9,30.03,South,183,0.0,4.0,57,0.00,,---,0.00,VWS V14.01,2013-11-04 17:56:00,
2013-11-04 12:01:00,51.4,37.1,30.01,SE,142,0.0,0.0,58,0.00,,---,0.00,VWS V14.01,2013-11-04 18:01:00,
2013-11-04 12:06:00,51.1,37.3,30.01,South,184,0.0,0.0,59,0.00,,---,0.00,VWS V14.01,2013-11-04 18:06:00,
2013-11-04 12:11:00,50.8,37.0,30.01,SSE,153,1.0,4.0,59,0.00,,---,0.00,VWS V14.01,2013-11-04 18:11:00,
2013-11-04 12:16:00,50.7,37.3,30.00,SSE,161,0.0,8.0,60,0.00,,---,0.00,VWS V14.01,2013-11-04 18:16:00,
2013-11-04 12:21:00,50.7,37.3,30.00,ESE,120,2.0,13.0,60,0.00,,---,0.00,VWS V14.01,2013-11-04 18:21:00,
2013-11-04 12:26:00,50.7,37.3,30.00,SSE,157,4.0,10.0,60,0.00,,---,0.00,VWS V14.01,2013-11-04 18:26:00,
2013-11-04 12:31:00,50.8,37.4,30.00,SSE,159,0.0,6.0,60,0.00,,---,0.00,VWS V14.01,2013-11-04 18:31:00,
2013-11-04 12:36:00,50.8,37.4,30.00,SSE,155,6.0,6.0,60,0.00,,---,0.00,VWS V14.01,2013-11-04 18:36:00,
2013-11-04 12:41:00,51.0,38.0,30.00,SSE,159,0.0,0.0,61,0.00,,---,0.00,VWS V14.01,2013-11-04 18:41:00,
2013-11-04 12:46:00,51.1,38.1,29.99,South,173,0.0,1.0,61,0.00,,---,0.00,VWS V14.01,2013-11-04 18:46:00,
2013-11-04 12:51:00,51.1,38.1,29.99,SSE,150,1.0,1.0,61,0.00,,---,0.00,VWS V14.01,2013-11-04 18:51:00,
2013-11-04 12:56:00,51.3,38.3,29.99,SSE,147,1.0,5.0,61,0.00,,---,0.00,VWS V14.01,2013-11-04 18:56:00,
2013-11-04 13:01:00,51.4,38.0,29.99,South,180,0.0,0.0,60,0.00,,---,0.00,VWS V14.01,2013-11-04 19:01:00,
2013-11-04 13:06:00,51.6,38.2,29.99,SW,222,7.0,7.0,60,0.00,,---,0.00,VWS V14.01,2013-11-04 19:06:00,
2013-11-04 13:11:00,52.0,37.7,29.99,SSE,165,0.0,0.0,58,0.00,,---,0.00,VWS V14.01,2013-11-04 19:11:00,
2013-11-04 13:16:00,52.2,37.4,29.99,South,169,0.0,0.0,57,0.00,,---,0.00,VWS V14.01,2013-11-04 19:16:00,
2013-11-04 13:21:00,52.3,37.1,29.99,South,175,6.0,12.0,56,0.00,,---,0.00,VWS V14.01,2013-11-04 19:21:00,
2013-11-04 13:26:00,52.3,37.5,29.99,ESE,118,0.0,2.0,57,0.00,,---,0.00,VWS V14.01,2013-11-04 19:26:00,
2013-11-04 13:31:00,52.3,37.5,29.99,SSW,194,0.0,6.0,57,0.00,,---,0.00,VWS V14.01,2013-11-04 19:31:00,
2013-11-04 13:36:00,52.3,37.5,29.99,South,169,6.0,7.0,57,0.00,,---,0.00,VWS V14.01,2013-11-04 19:36:00,
2013-11-04 13:41:00,52.3,38.0,29.99,SSW,213,4.0,6.0,58,0.00,,---,0.00,VWS V14.01,2013-11-04 19:41:00,
2013-11-04 13:46:00,52.5,38.2,29.99,South,171,0.0,0.0,58,0.00,,---,0.00,VWS V14.01,2013-11-04 19:46:00,
2013-11-04 13:51:00,52.3,38.0,29.99,SSE,157,7.0,9.0,58,0.00,,---,0.00,VWS V14.01,2013-11-04 19:51:00,
2013-11-04 13:56:00,52.2,37.4,29.99,South,182,2.0,4.0,57,0.00,,---,0.00,VWS V14.01,2013-11-04 19:56:00,
2013-11-04 14:01:00,52.0,38.1,29.99,South,175,10.0,10.0,59,0.00,,---,0.00,VWS V14.01,2013-11-04 20:01:00,
2013-11-04 14:06:00,52.0,38.1,29.99,SSE,157,5.0,8.0,59,0.00,,---,0.00,VWS V14.01,2013-11-04 20:06:00,
2013-11-04 14:11:00,52.0,38.1,29.99,SE,142,0.0,1.0,59,0.00,,---,0.00,VWS V14.01,2013-11-04 20:11:00,
2013-11-04 14:16:00,52.0,38.6,29.98,SSW,200,11.0,11.0,60,0.00,,---,0.00,VWS V14.01,2013-11-04 20:16:00,
2013-11-04 14:21:00,52.0,38.6,29.98,SSE,167,1.0,10.0,60,0.00,,---,0.00,VWS V14.01,2013-11-04 20:21:00,
2013-11-04 14:26:00,52.0,38.6,29.98,South,186,0.0,0.0,60,0.00,,---,0.00,VWS V14.01,2013-11-04 20:26:00,
2013-11-04 14:31:00,52.0,38.6,29.96,South,176,7.0,7.0,60,0.00,,---,0.00,VWS V14.01,2013-11-04 20:31:00,
2013-11-04 14:36:00,52.0,39.0,29.96,SSE,147,12.0,12.0,61,0.00,,---,0.00,VWS V14.01,2013-11-04 20:36:00,
2013-11-04 14:41:00,52.0,39.4,29.96,SSE,160,9.0,9.0,62,0.00,,---,0.00,VWS V14.01,2013-11-04 20:41:00,
2013-11-04 14:46:00,52.3,39.3,29.96,South,182,3.0,3.0,61,0.00,,---,0.00,VWS V14.01,2013-11-04 20:46:00,
2013-11-04 14:51:00,52.9,39.8,29.96,SSE,163,0.0,1.0,61,0.00,,---,0.00,VWS V14.01,2013-11-04 20:51:00,
2013-11-04 14:56:00,53.2,39.7,29.96,SSE,161,10.0,10.0,60,0.00,,---,0.00,VWS V14.01,2013-11-04 20:56:00,
2013-11-04 15:01:00,53.3,39.3,29.97,ESE,115,5.0,7.0,59,0.00,,---,0.00,VWS V14.01,2013-11-04 21:01:00,
2013-11-04 15:06:00,53.5,39.1,29.97,South,171,0.0,0.0,58,0.00,,---,0.00,VWS V14.01,2013-11-04 21:06:00,
2013-11-04 15:11:00,53.5,39.5,29.97,SSE,158,5.0,5.0,59,0.00,,---,0.00,VWS V14.01,2013-11-04 21:11:00,
2013-11-04 15:16:00,53.5,39.5,29.97,SSE,161,1.0,9.0,59,0.00,,---,0.00,VWS V14.01,2013-11-04 21:16:00,
2013-11-04 15:21:00,53.8,39.8,29.97,South,169,10.0,11.0,59,0.00,,---,0.00,VWS V14.01,2013-11-04 21:21:00,
2013-11-04 15:26:00,54.1,39.7,29.97,SSE,157,4.0,6.0,58,0.00,,---,0.00,VWS V14.01,2013-11-04 21:26:00,
2013-11-04 15:31:00,54.1,39.7,29.97,South,184,0.0,0.0,58,0.00,,---,0.00,VWS V14.01,2013-11-04 21:31:00,
2013-11-04 15:36:00,54.1,39.7,29.97,SSE,161,0.0,0.0,58,0.00,,---,0.00,VWS V14.01,2013-11-04 21:36:00,
2013-11-04 15:41:00,54.1,39.7,29.97,South,171,10.0,14.0,58,0.00,,---,0.00,VWS V14.01,2013-11-04 21:41:00,
2013-11-04 15:46:00,54.1,39.2,29.98,South,175,0.0,6.0,57,0.00,,---,0.00,VWS V14.01,2013-11-04 21:46:00,
2013-11-04 15:51:00,54.1,39.2,29.98,SE,134,0.0,9.0,57,0.00,,---,0.00,VWS V14.01,2013-11-04 21:51:00,
2013-11-04 15:56:00,54.1,39.7,29.98,ESE,121,6.0,6.0,58,0.00,,---,0.00,VWS V14.01,2013-11-04 21:56:00,
2013-11-04 16:01:00,53.9,39.5,29.99,SSE,157,0.0,2.0,58,0.00,,---,0.00,VWS V14.01,2013-11-04 22:01:00,
2013-11-04 16:06:00,53.8,39.8,29.99,South,183,9.0,12.0,59,0.00,,---,0.00,VWS V14.01,2013-11-04 22:06:00,
2013-11-04 16:11:00,53.8,39.8,29.99,SSE,154,4.0,7.0,59,0.00,,---,0.00,VWS V14.01,2013-11-04 22:11:00,
2013-11-04 16:16:00,53.6,40.1,29.98,SSE,148,6.0,7.0,60,0.00,,---,0.00,VWS V14.01,2013-11-04 22:16:00,
2013-11-04 16:21:00,53.5,40.0,29.98,SSE,164,4.0,8.0,60,0.00,,---,0.00,VWS V14.01,2013-11-04 22:21:00,
2013-11-04 16:26:00,53.5,40.4,29.98,SSE,160,0.0,1.0,61,0.00,,---,0.00,VWS V14.01,2013-11-04 22:26:00,
2013-11-04 16:31:00,53.3,40.2,29.99,SSE,158,0.0,5.0,61,0.00,,---,0.00,VWS V14.01,2013-11-04 22:31:00,
2013-11-04 16:36:00,53.3,40.2,29.99,SE,136,0.0,0.0,61,0.00,,---,0.00,VWS V14.01,2013-11-04 22:36:00,
2013-11-04 16:41:00,53.2,40.1,29.99,South,180,0.0,5.0,61,0.00,,---,0.00,VWS V14.01,2013-11-04 22:41:00,
2013-11-04 16:46:00,53.2,40.5,29.99,SSE,149,0.0,2.0,62,0.00,,---,0.00,VWS V14.01,2013-11-04 22:46:00,
2013-11-04 16:51:00,53.1,40.8,29.99,South,178,0.0,2.0,63,0.00,,---,0.00,VWS V14.01,2013-11-04 22:51:00,
2013-11-04 16:56:00,52.9,40.7,29.99,SSE,160,0.0,5.0,63,0.00,,---,0.00,VWS V14.01,2013-11-04 22:56:00,
2013-11-04 17:01:00,52.9,40.7,30.00,SSE,153,0.0,0.0,63,0.00,,---,0.00,VWS V14.01,2013-11-04 23:01:00,
2013-11-04 17:06:00,52.8,40.6,30.00,SSE,153,0.0,0.0,63,0.00,,---,0.00,VWS V14.01,2013-11-04 23:06:00,
2013-11-04 17:11:00,52.8,40.6,30.00,SSE,157,0.0,2.0,63,0.00,,---,0.00,VWS V14.01,2013-11-04 23:11:00,
2013-11-04 17:16:00,52.8,41.0,30.00,South,184,0.0,0.0,64,0.00,,---,0.00,VWS V14.01,2013-11-04 23:16:00,
2013-11-04 17:21:00,52.6,40.8,30.00,SSE,150,0.0,0.0,64,0.00,,---,0.00,VWS V14.01,2013-11-04 23:21:00,
2013-11-04 17:26:00,52.6,40.8,30.00,SSE,150,0.0,0.0,64,0.00,,---,0.00,VWS V14.01,2013-11-04 23:26:00,
2013-11-04 17:31:00,52.6,40.8,30.00,SSE,163,5.0,6.0,64,0.00,,---,0.00,VWS V14.01,2013-11-04 23:31:00,
2013-11-04 17:36:00,52.6,40.8,30.00,SSE,163,0.0,2.0,64,0.00,,---,0.00,VWS V14.01,2013-11-04 23:36:00,
2013-11-04 17:41:00,52.6,41.2,30.00,SSE,165,0.0,0.0,65,0.00,,---,0.00,VWS V14.01,2013-11-04 23:41:00,
2013-11-04 17:46:00,52.5,41.1,30.00,SSE,165,0.0,0.0,65,0.00,,---,0.00,VWS V14.01,2013-11-04 23:46:00,
2013-11-04 17:51:00,52.5,41.5,30.00,SSE,165,0.0,0.0,66,0.00,,---,0.00,VWS V14.01,2013-11-04 23:51:00,
2013-11-04 17:56:00,52.3,41.3,30.00,SSW,197,4.0,6.0,66,0.00,,---,0.00,VWS V14.01,2013-11-04 23:56:00,
2013-11-04 18:01:00,52.3,41.3,30.01,South,187,0.0,0.0,66,0.00,,---,0.00,VWS V14.01,2013-11-05 00:01:00,
2013-11-04 18:06:00,52.3,41.3,30.01,South,176,0.0,6.0,66,0.00,,---,0.00,VWS V14.01,2013-11-05 00:06:00,
2013-11-04 18:11:00,52.3,40.9,30.01,South,181,2.0,8.0,65,0.00,,---,0.00,VWS V14.01,2013-11-05 00:11:00,
2013-11-04 18:16:00,52.5,41.1,30.02,SW,216,0.0,9.0,65,0.00,,---,0.00,VWS V14.01,2013-11-05 00:16:00,
2013-11-04 18:21:00,52.5,41.1,30.02,South,180,6.0,9.0,65,0.00,,---,0.00,VWS V14.01,2013-11-05 00:21:00,
2013-11-04 18:25:00,52.6,40.0,30.02,SSE,165,0.0,5.0,62,0.00,,---,0.00,VWS V14.01,2013-11-05 00:25:00,
2013-11-04 18:30:00,52.5,41.1,30.03,South,182,2.0,5.0,65,0.00,,---,0.00,VWS V14.01,2013-11-05 00:30:00,
2013-11-04 18:35:00,52.5,41.1,30.03,South,184,0.0,0.0,65,0.00,,---,0.00,VWS V14.01,2013-11-05 00:35:00,
2013-11-04 18:40:00,52.3,41.3,30.03,South,184,0.0,1.0,66,0.00,,---,0.00,VWS V14.01,2013-11-05 00:40:00,
2013-11-04 18:45:00,52.3,41.3,30.03,South,181,5.0,5.0,66,0.00,,---,0.00,VWS V14.01,2013-11-05 00:45:00,
2013-11-04 18:50:00,52.2,41.2,30.03,SSW,202,0.0,6.0,66,0.00,,---,0.00,VWS V14.01,2013-11-05 00:50:00,
2013-11-04 18:55:00,52.2,41.2,30.03,South,190,0.0,0.0,66,0.00,,---,0.00,VWS V14.01,2013-11-05 00:55:00,
2013-11-04 19:00:00,52.2,41.6,30.03,SSE,167,1.0,9.0,67,0.00,,---,0.00,VWS V14.01,2013-11-05 01:00:00,
2013-11-04 19:05:00,52.2,41.6,30.03,South,186,2.0,2.0,67,0.00,,---,0.00,VWS V14.01,2013-11-05 01:05:00,
2013-11-04 19:10:00,52.2,41.6,30.03,South,172,0.0,0.0,67,0.00,,---,0.00,VWS V14.01,2013-11-05 01:10:00,
2013-11-04 19:15:00,52.2,41.6,30.03,South,180,0.0,0.0,67,0.00,,---,0.00,VWS V14.01,2013-11-05 01:15:00,
2013-11-04 19:20:00,52.2,41.6,30.03,SSW,196,4.0,8.0,67,0.00,,---,0.00,VWS V14.01,2013-11-05 01:20:00,
2013-11-04 19:25:00,52.2,41.6,30.03,South,184,0.0,0.0,67,0.00,,---,0.00,VWS V14.01,2013-11-05 01:25:00,
2013-11-04 19:30:00,52.0,41.8,30.03,South,190,0.0,2.0,68,0.00,,---,0.00,VWS V14.01,2013-11-05 01:30:00,
2013-11-04 19:35:00,52.0,41.8,30.03,South,190,0.0,0.0,68,0.00,,---,0.00,VWS V14.01,2013-11-05 01:35:00,
2013-11-04 19:40:00,51.9,41.7,30.03,South,190,0.0,0.0,68,0.00,,---,0.00,VWS V14.01,2013-11-05 01:40:00,
2013-11-04 19:45:00,51.7,41.9,30.03,South,190,0.0,0.0,69,0.00,,---,0.00,VWS V14.01,2013-11-05 01:45:00,
2013-11-04 19:50:00,51.7,41.9,30.03,South,190,0.0,0.0,69,0.00,,---,0.00,VWS V14.01,2013-11-05 01:50:00,
2013-11-04 19:55:00,51.6,41.8,30.03,South,190,0.0,0.0,69,0.00,,---,0.00,VWS V14.01,2013-11-05 01:55:00,
2013-11-04 20:00:00,51.4,42.0,30.04,South,190,0.0,0.0,70,0.00,,---,0.00,VWS V14.01,2013-11-05 02:00:00,
2013-11-04 20:05:00,51.4,42.0,30.04,South,180,2.0,7.0,70,0.00,,---,0.00,VWS V14.01,2013-11-05 02:05:00,
2013-11-04 20:10:00,51.4,42.0,30.04,South,184,5.0,7.0,70,0.00,,---,0.00,VWS V14.01,2013-11-05 02:10:00,
2013-11-04 20:15:00,51.6,42.2,30.05,SSE,158,0.0,8.0,70,0.00,,---,0.00,VWS V14.01,2013-11-05 02:15:00,
2013-11-04 20:20:00,51.6,42.5,30.05,SSW,192,0.0,0.0,71,0.00,,---,0.00,VWS V14.01,2013-11-05 02:20:00,
2013-11-04 20:25:00,51.6,42.9,30.05,South,170,8.0,8.0,72,0.00,,---,0.00,VWS V14.01,2013-11-05 02:25:00,
2013-11-04 20:30:00,51.6,43.2,30.05,South,185,0.0,6.0,73,0.00,,---,0.00,VWS V14.01,2013-11-05 02:30:00,
2013-11-04 20:35:00,51.6,43.2,30.05,SSW,196,0.0,0.0,73,0.00,,---,0.00,VWS V14.01,2013-11-05 02:35:00,
2013-11-04 20:40:00,51.4,43.4,30.05,South,180,0.0,0.0,74,0.00,,---,0.00,VWS V14.01,2013-11-05 02:40:00,
2013-11-04 20:45:00,51.4,43.4,30.05,South,180,0.0,0.0,74,0.00,,---,0.00,VWS V14.01,2013-11-05 02:45:00,
2013-11-04 20:50:00,51.3,43.3,30.05,SSW,198,0.0,0.0,74,0.00,,---,0.00,VWS V14.01,2013-11-05 02:50:00,
2013-11-04 20:55:00,51.3,43.3,30.05,SSW,195,2.0,7.0,74,0.00,,---,0.00,VWS V14.01,2013-11-05 02:55:00,
2013-11-04 21:00:00,51.3,43.3,30.06,South,188,0.0,0.0,74,0.00,,---,0.00,VWS V14.01,2013-11-05 03:00:00,
2013-11-04 21:05:00,51.1,43.1,30.06,South,190,0.0,0.0,74,0.00,,---,0.00,VWS V14.01,2013-11-05 03:05:00,
2013-11-04 21:10:00,51.1,43.5,30.06,SSW,194,0.0,0.0,75,0.00,,---,0.00,VWS V14.01,2013-11-05 03:10:00,
2013-11-04 21:15:00,51.1,43.5,30.06,South,189,0.0,0.0,75,0.00,,---,0.00,VWS V14.01,2013-11-05 03:15:00,
2013-11-04 21:20:00,51.0,43.4,30.06,South,189,0.0,0.0,75,0.00,,---,0.00,VWS V14.01,2013-11-05 03:20:00,
2013-11-04 21:25:00,51.0,43.4,30.06,South,181,0.0,0.0,75,0.00,,---,0.00,VWS V14.01,2013-11-05 03:25:00,
2013-11-04 21:30:00,50.8,43.5,30.06,South,180,0.0,0.0,76,0.00,,---,0.00,VWS V14.01,2013-11-05 03:30:00,
2013-11-04 21:35:00,50.8,43.5,30.06,SSE,163,0.0,0.0,76,0.00,,---,0.00,VWS V14.01,2013-11-05 03:35:00,
2013-11-04 21:40:00,50.8,43.2,30.06,South,176,0.0,0.0,75,0.00,,---,0.00,VWS V14.01,2013-11-05 03:40:00,
2013-11-04 21:45:00,50.8,43.2,30.06,South,187,0.0,5.0,75,0.00,,---,0.00,VWS V14.01,2013-11-05 03:45:00,
2013-11-04 21:50:00,50.8,43.5,30.06,South,182,0.0,0.0,76,0.00,,---,0.00,VWS V14.01,2013-11-05 03:50:00,
2013-11-04 21:55:00,50.8,43.5,30.06,SSW,198,5.0,9.0,76,0.00,,---,0.00,VWS V14.01,2013-11-05 03:55:00,
2013-11-04 22:00:00,50.8,43.5,30.06,SSW,198,0.0,0.0,76,0.00,,---,0.00,VWS V14.01,2013-11-05 04:00:00,
2013-11-04 22:05:00,50.8,43.5,30.06,SSW,199,0.0,0.0,76,0.00,,---,0.00,VWS V14.01,2013-11-05 04:05:00,
2013-11-04 22:10:00,50.8,43.5,30.06,South,188,0.0,0.0,76,0.00,,---,0.00,VWS V14.01,2013-11-05 04:10:00,
2013-11-04 22:15:00,50.8,43.9,30.06,South,190,0.0,0.0,77,0.00,,---,0.00,VWS V14.01,2013-11-05 04:15:00,
2013-11-04 22:20:00,50.7,43.8,30.06,South,189,0.0,0.0,77,0.00,,---,0.00,VWS V14.01,2013-11-05 04:20:00,
2013-11-04 22:25:00,50.7,43.8,30.06,South,189,0.0,0.0,77,0.00,,---,0.00,VWS V14.01,2013-11-05 04:25:00,
2013-11-04 22:30:00,50.7,43.8,30.06,South,186,1.0,5.0,77,0.00,,---,0.00,VWS V14.01,2013-11-05 04:30:00,
2013-11-04 22:35:00,50.7,43.8,30.06,South,176,0.0,0.0,77,0.00,,---,0.00,VWS V14.01,2013-11-05 04:35:00,
2013-11-04 22:40:00,50.5,43.9,30.06,South,176,0.0,0.0,78,0.00,,---,0.00,VWS V14.01,2013-11-05 04:40:00,
2013-11-04 22:45:00,50.5,43.9,30.06,South,176,0.0,0.0,78,0.00,,---,0.00,VWS V14.01,2013-11-05 04:45:00,
2013-11-04 22:50:00,50.4,43.8,30.06,South,176,0.0,0.0,78,0.00,,---,0.00,VWS V14.01,2013-11-05 04:50:00,
2013-11-04 22:55:00,50.4,44.1,30.06,South,176,0.0,0.0,79,0.00,,---,0.00,VWS V14.01,2013-11-05 04:55:00,
2013-11-04 23:00:00,50.4,44.1,30.07,South,176,0.0,0.0,79,0.00,,---,0.00,VWS V14.01,2013-11-05 05:00:00,
2013-11-04 23:01:00,50.4,44.1,30.07,South,176,0.0,0.0,79,0.00,,---,0.00,VWS V14.01,2013-11-05 05:01:00,
2013-11-04 23:06:00,50.2,44.0,30.07,South,176,0.0,0.0,79,0.00,,---,0.00,VWS V14.01,2013-11-05 05:06:00,
2013-11-04 23:11:00,50.2,44.0,30.07,South,176,0.0,0.0,79,0.00,,---,0.00,VWS V14.01,2013-11-05 05:11:00,
2013-11-04 23:16:00,50.2,44.0,30.07,South,176,0.0,0.0,79,0.00,,---,0.00,VWS V14.01,2013-11-05 05:16:00,
2013-11-04 23:21:00,50.2,44.0,30.07,South,178,0.0,0.0,79,0.00,,---,0.00,VWS V14.01,2013-11-05 05:21:00,
2013-11-04 23:26:00,50.2,44.0,30.07,South,178,0.0,0.0,79,0.00,,---,0.00,VWS V14.01,2013-11-05 05:26:00,
2013-11-04 23:31:00,50.2,44.0,30.08,South,178,0.0,0.0,79,0.00,,---,0.00,VWS V14.01,2013-11-05 05:31:00,
2013-11-04 23:36:00,50.2,44.0,30.08,South,178,0.0,0.0,79,0.00,,---,0.00,VWS V14.01,2013-11-05 05:36:00,
2013-11-04 23:41:00,50.2,44.0,30.08,South,178,0.0,0.0,79,0.00,,---,0.00,VWS V14.01,2013-11-05 05:41:00,
2013-11-04 23:46:00,50.2,44.0,30.08,South,178,0.0,0.0,79,0.00,,---,0.00,VWS V14.01,2013-11-05 05:46:00,
2013-11-04 23:51:00,50.1,43.8,30.08,South,178,0.0,0.0,79,0.00,,---,0.00,VWS V14.01,2013-11-05 05:51:00,
2013-11-04 23:56:00,50.1,43.8,30.08,South,178,0.0,0.0,79,0.00,,---,0.00,VWS V14.01,2013-11-05 05:56:00,